Location: Unspecified
(0.0000°N, 0.0000°E)
Time: 08:06:52
(UTC+00:00)

ATLAS 5 CENTAUR DEB - Pass Details

Date: 10 December 2025
Orbit: 8829 x 35105 km, 13.2° (Epoch: 17 January)

Event Time Altitude Azimuth Distance (km) Brightness Sun altitude
Rises 22:02:50 0° 257° (WSW) 13,935 ? -54.7°
Reaches altitude 10° 22:11:04 10° 257° (WSW) 13,199 ? -56.2°
Maximum altitude 08:39:09 83° 31° (NNE) 22,679 ? 37.5°
Drops below altitude 10° 10:38:43 10° 104° (ESE) 13,782 ? 60.7°
Sets 10:47:17 0° 104° (ESE) 14,301 ? 61.9°
